Location: Grambois
(43.7619°N, 5.5873°E)
Time: 09:24:49
(UTC+00:00)

BREEZE-M DEB (TANK) - Pass Details

Date: 07 October 2020
Orbit: 333 x 12040 km, 49.7° (Epoch: 22 October)

Event Time Altitude Azimuth Distance (km) Brightness Sun altitude
Rises 23:28:32 0° 129° (SE) 15,535 9.2 -51.8°
Reaches altitude 10° 23:55:28 10° 114° (ESE) 16,012 9.3 -51.3°
Maximum altitude 00:38:10 18° 89° (E) 14,559 9.4 -48.6°
Drops below altitude 10° 01:08:44 10° 64° (ENE) 12,292 9.4 -45.6°
Sets 01:21:35 0° 51° (NE) 11,370 9.5 -44.1°
